Date String (YYYY-MM-DD hh:mm:ss) UTC,Instrument flags,Ambient pressure (hPa),Sample flow (lpm),Bypass flow (lpm),Sample temperature (°C),Ambient temperature (°C),ASC tube jacket temperature (°C),LED temperature (°C),Box temperature (°C),Sample RH (%),Mass concentration (μg/m³),Mass concentration (μg/m³)
DateTimeUTC,F1_M11,P_M11,Q1_M11,Q2_M11,T1_M11,T2_M11,T3_M11,T4_M11,T5_M11,U1_M11,X0_M11,X2_M11
2021-08-12 02:00:00,FlowAlarm;OPCInstrumentWarning,0827.2,4.99,0.00,28.5,26.5,00.0,37.8,30.4,18.5,0047.16,0030.01
2021-08-12 02:01:00,FlowAlarm;OPCInstrumentWarning,0827.2,5.01,0.00,28.6,26.9,00.0,37.8,30.6,18.5,0046.14,0030.01
2021-08-12 02:02:00,FlowAlarm;OPCInstrumentWarning,0827.3,5.00,0.00,28.6,27.3,00.0,37.8,30.7,18.4,0046.74,0030.03
2021-08-12 02:03:00,FlowAlarm;OPCInstrumentWarning,0827.3,4.99,0.00,28.7,27.6,00.0,37.8,30.8,18.3,0047.07,0029.91
2021-08-12 02:04:00,FlowAlarm;OPCInstrumentWarning,0827.3,4.99,0.00,28.7,27.9,00.0,37.8,30.9,18.4,0047.79,0029.86
2021-08-12 02:05:00,FlowAlarm;OPCInstrumentWarning,0827.3,5.00,0.00,28.8,28.1,00.0,37.8,31.0,18.1,0047.10,0029.83
2021-08-12 02:06:00,FlowAlarm;OPCInstrumentWarning,0827.4,5.01,0.00,28.9,28.3,00.0,37.9,31.1,18.0,0046.20,0029.87
2021-08-12 02:07:00,FlowAlarm;OPCInstrumentWarning,0827.4,5.00,0.00,29.0,28.5,00.0,37.9,31.1,17.7,0045.82,0029.80
2021-08-12 02:08:00,FlowAlarm;OPCInstrumentWarning,0827.4,5.00,0.00,29.0,28.4,00.0,38.0,31.2,17.6,0046.96,0029.86
2021-08-12 02:09:00,FlowAlarm;OPCInstrumentWarning,0827.4,5.00,0.00,29.0,26.9,00.0,38.0,30.8,18.0,0046.60,0029.99
2021-08-12 02:10:00,FlowAlarm;OPCInstrumentWarning,0827.4,5.01,0.00,28.9,25.4,00.0,37.9,30.4,18.1,0047.91,0030.00
2021-08-12 02:11:00,FlowAlarm;OPCInstrumentWarning,0827.4,5.00,0.00,28.8,25.4,00.0,37.9,30.4,18.6,0048.31,0030.09
2021-08-12 02:12:00,FlowAlarm;OPCInstrumentWarning,0827.4,4.99,0.00,28.7,25.9,00.0,37.9,30.4,18.9,0049.11,0030.15
2021-08-12 02:13:00,FlowAlarm;OPCInstrumentWarning,0827.4,5.01,0.00,28.7,26.4,00.0,37.9,30.5,18.9,0048.35,0030.16
2021-08-12 02:14:00,FlowAlarm;OPCInstrumentWarning,0827.4,5.01,0.00,28.7,26.9,00.0,37.9,30.7,18.9,0048.11,0030.19
2021-08-12 02:15:00,FlowAlarm;OPCInstrumentWarning,0827.5,4.99,0.00,28.7,27.3,00.0,37.9,30.8,18.9,0048.68,0030.23
2021-08-12 02:16:00,FlowAlarm;OPCInstrumentWarning,0827.5,5.01,0.00,28.8,27.6,00.0,37.9,30.9,18.7,0049.57,0030.29
2021-08-12 02:17:00,FlowAlarm;OPCInstrumentWarning,0827.5,4.99,0.00,28.8,27.9,00.0,37.9,31.0,18.7,0049.70,0030.28
2021-08-12 02:18:00,FlowAlarm;OPCInstrumentWarning,0827.5,5.00,0.00,28.9,28.1,00.0,37.9,31.0,18.4,0049.88,0030.30
2021-08-12 02:19:00,FlowAlarm;OPCInstrumentWarning,0827.5,5.00,0.00,29.0,28.3,00.0,38.0,31.1,18.2,0048.62,0030.26
2021-08-12 02:20:00,FlowAlarm;OPCInstrumentWarning,0827.5,5.00,0.00,29.1,28.5,00.0,38.0,31.2,18.2,0047.86,0030.19
2021-08-12 02:21:00,FlowAlarm;OPCInstrumentWarning,0827.6,4.98,0.00,29.1,28.6,00.0,38.1,31.3,18.2,0046.96,0030.24
2021-08-12 02:22:00,FlowAlarm;OPCInstrumentWarning,0827.6,5.00,0.00,29.2,28.4,00.0,38.1,31.2,18.4,0048.14,0030.32
2021-08-12 02:23:00,FlowAlarm;OPCInstrumentWarning,0827.5,4.99,0.00,29.1,26.7,00.0,38.1,30.8,18.7,0048.55,0030.33
2021-08-12 02:24:00,FlowAlarm;OPCInstrumentWarning,0827.5,5.00,0.00,28.9,25.5,00.0,38.1,30.4,19.0,0049.44,0030.34
2021-08-12 02:25:00,FlowAlarm;OPCInstrumentWarning,0827.5,5.00,0.00,28.8,25.6,00.0,38.0,30.4,19.2,0051.03,0030.48
2021-08-12 02:26:00,FlowAlarm;OPCInstrumentWarning,0827.5,5.01,0.00,28.8,26.1,00.0,38.0,30.5,19.4,0051.12,0030.60
2021-08-12 02:27:00,FlowAlarm;OPCInstrumentWarning,0827.5,5.00,0.00,28.7,26.5,00.0,38.0,30.6,19.1,0051.43,0030.63
2021-08-12 02:28:00,FlowAlarm;OPCInstrumentWarning,0827.5,4.99,0.00,28.8,27.0,00.0,38.0,30.8,19.1,0051.15,0030.63
2021-08-12 02:29:00,FlowAlarm;OPCInstrumentWarning,0827.5,5.00,0.00,28.8,27.4,00.0,38.0,30.9,19.1,0053.01,0030.72
2021-08-12 02:30:00,FlowAlarm;OPCInstrumentWarning,0827.5,5.01,0.00,28.9,27.7,00.0,38.0,31.0,18.9,0053.56,0030.78
2021-08-12 02:31:00,FlowAlarm;OPCInstrumentWarning,0827.6,5.00,0.00,28.9,28.0,00.0,38.0,31.0,18.9,0054.87,0030.84
2021-08-12 02:32:00,FlowAlarm;OPCInstrumentWarning,0827.6,5.01,0.00,29.0,28.2,00.0,38.0,31.1,18.8,0054.46,0030.88
2021-08-12 02:33:00,FlowAlarm;OPCInstrumentWarning,0827.5,4.98,0.00,29.1,28.4,00.0,38.1,31.2,18.7,0053.58,0030.86
2021-08-12 02:34:00,FlowAlarm;OPCInstrumentWarning,0827.6,5.00,0.00,29.1,28.5,00.0,38.1,31.3,18.6,0054.41,0030.91
2021-08-12 02:35:00,FlowAlarm;OPCInstrumentWarning,0827.6,4.99,0.00,29.2,28.6,00.0,38.2,31.3,18.7,0054.14,0030.93
2021-08-12 02:36:00,FlowAlarm;OPCInstrumentWarning,0827.6,5.00,0.00,29.2,27.3,00.0,38.2,30.9,18.9,0052.70,0030.88
2021-08-12 02:37:00,FlowAlarm;OPCInstrumentWarning,0827.6,5.00,0.00,29.0,25.7,00.0,38.1,30.5,19.0,0052.02,0030.86
2021-08-12 02:38:00,FlowAlarm;OPCInstrumentWarning,0827.6,5.00,0.00,28.9,25.6,00.0,38.1,30.4,19.0,0052.56,0030.90
2021-08-12 02:39:00,FlowAlarm;OPCInstrumentWarning,0827.6,5.00,0.00,28.8,25.9,00.0,38.1,30.5,18.9,0052.81,0031.01
2021-08-12 02:40:00,FlowAlarm;OPCInstrumentWarning,0827.7,5.00,0.00,28.8,26.4,00.0,38.0,30.6,19.2,0051.67,0030.99
2021-08-12 02:41:00,FlowAlarm;OPCInstrumentWarning,0827.7,5.00,0.00,28.8,26.9,00.0,38.0,30.7,19.6,0052.77,0031.01
2021-08-12 02:42:00,FlowAlarm;OPCInstrumentWarning,0827.7,5.01,0.00,28.8,27.2,00.0,38.0,30.8,19.4,0052.54,0031.09
2021-08-12 02:43:00,FlowAlarm;OPCInstrumentWarning,0827.7,4.99,0.00,28.9,27.6,00.0,38.0,30.9,19.5,0052.75,0031.09
2021-08-12 02:44:00,FlowAlarm;OPCInstrumentWarning,0827.7,5.01,0.00,28.9,27.8,00.0,38.0,31.0,19.2,0052.91,0031.10
2021-08-12 02:45:00,FlowAlarm;OPCInstrumentWarning,0827.7,4.99,0.00,29.0,28.1,00.0,38.1,31.1,19.2,0052.11,0031.12
2021-08-12 02:46:00,FlowAlarm;OPCInstrumentWarning,0827.7,5.02,0.00,29.0,28.3,00.0,38.1,31.2,19.1,0051.46,0031.17
2021-08-12 02:47:00,FlowAlarm;OPCInstrumentWarning,0827.7,4.98,0.00,29.1,28.4,00.0,38.1,31.2,18.9,0051.27,0031.20
2021-08-12 02:48:00,FlowAlarm;OPCInstrumentWarning,0827.7,5.00,0.00,29.2,28.6,00.0,38.2,31.3,18.8,0051.66,0031.10
2021-08-12 02:49:00,FlowAlarm;OPCInstrumentWarning,0827.7,5.01,0.00,29.2,28.6,00.0,38.2,31.3,18.5,0050.41,0031.08
2021-08-12 02:50:00,FlowAlarm;OPCInstrumentWarning,0827.7,5.00,0.00,29.2,27.1,00.0,38.2,30.9,18.2,0050.18,0030.99
2021-08-12 02:51:00,FlowAlarm;OPCInstrumentWarning,0827.7,5.00,0.00,29.0,25.6,00.0,38.2,30.5,18.2,0049.83,0030.90
2021-08-12 02:52:00,FlowAlarm;OPCInstrumentWarning,0827.7,5.00,0.00,28.9,25.5,00.0,38.1,30.5,18.3,0048.90,0030.83
2021-08-12 02:53:00,FlowAlarm;OPCInstrumentWarning,0827.7,5.01,0.00,28.8,25.9,00.0,38.1,30.6,18.4,0049.10,0030.76
2021-08-12 02:54:00,FlowAlarm;OPCInstrumentWarning,0827.7,5.00,0.00,28.8,26.4,00.0,38.1,30.6,18.3,0048.97,0030.71
2021-08-12 02:55:00,FlowAlarm;OPCInstrumentWarning,0827.7,4.99,0.00,28.8,26.8,00.0,38.1,30.7,18.1,0047.93,0030.63
2021-08-12 02:56:00,FlowAlarm;OPCInstrumentWarning,0827.8,5.00,0.00,28.9,27.2,00.0,38.1,30.8,18.1,0047.01,0030.51
2021-08-12 02:57:00,FlowAlarm;OPCInstrumentWarning,0827.9,4.99,0.00,28.9,27.6,00.0,38.1,30.9,18.2,0048.06,0030.40
2021-08-12 02:58:00,FlowAlarm;OPCInstrumentWarning,0827.9,5.00,0.00,28.9,27.9,00.0,38.1,31.0,18.1,0049.11,0030.43
2021-08-12 02:59:00,FlowAlarm;OPCInstrumentWarning,0827.9,5.00,0.00,29.0,28.1,00.0,38.1,31.1,17.8,0049.61,0030.39
